Tracking 29510 objects as of 15-Sep-2024
HD Live streaming from Space Station
objects crossing your sky now

O3B PFM

Track O3B PFM now!
10-day predictions
O3B PFM is classified as:


NORAD ID: 39191
Int'l Code: 2013-031D
Perigee: 8,069.3 km
Apogee: 8,076.8 km
Inclination: 0.1 °
Period: 287.9 minutes
Semi major axis: 14444 km
RCS: Unknown
Launch date: June 25, 2013
Source: O3b Networks (O3B)
Launch site: FRENCH GUIANA (FRGUI)

O3b satellites will reach customers across the planet between 45 degrees north and south latitude. O3b offers the benefits of fiber-optic lines without the costs to maintain them.
Your satellite tracking list
Your tracking list is empty




NASA's NSSDC Master Catalog

Two Line Element Set (TLE):
1 39191U 13031D   24257.40200647 -.00000017  00000-0  00000-0 0  9993
2 39191   0.0603 359.9390 0002592 173.9684 186.0984  5.00116132204560
Source of the keplerian elements: AFSPC